Location: Wald
(31.7579°N, 86.6655°W)
Time: 12:20:56
(UTC+00:00)

Nadezhda 4 Rocket - Pass Details

Date: 14 July 2020
Orbit: 951 x 991 km, 82.9° (Epoch: 08 August)

Event Time Altitude Azimuth Distance (km) Brightness Sun altitude
Rises 10:08:06 0° 345° (NNW) 3,707 7.3 -8.9°
Reaches altitude 10° 10:10:45 10° 339° (NNW) 2,756 6.5 -8.4°
Maximum altitude 10:16:38 42° 270° (W) 1,379 4.5 -7.4°
Drops below altitude 10° 10:22:28 10° 202° (SSW) 2,736 5.9 -6.3°
Sets 10:25:06 0° 195° (SSW) 3,677 6.6 -5.8°
